Home   Weather   Paramus   Past weeks

Flag for USA Past Weather in Paramus, New Jersey, USA — Yesterday and Last 2 Weeks

Now
57 °F

Clear.


Feels Like: 57 °F
Forecast: 57 / 72 °F
Wind: 5 mph from North

Location: Teterboro Airport

Current Time: Sep 28, 2016 at 2:54:22 AM

Latest Report: Sep 28, 2016 at 1:51 AM


Visibility: 10 mi

Pressure: 29.99 "Hg

Humidity: 83%

Dew Point: 52 °F

Location of ParamusLocation

Past Weather in Paramus — Graph

°F

Paramus Temperature Yesterday

Maximum temperature yesterday: 76 °F (at 2:51 PM)
Minimum temperature yesterday: 59 °F (at 11:51 PM)
Average temperature yesterday: 68 °F

High & Low Weather Summary for the Past Weeks

 TemperatureHumidityPressure
High91 °F (Sep 14, 2:51 PM)94% (Sep 27, 5:01 AM)30.33 "Hg (Sep 27, 5:01 AM)
Low49 °F (Sep 26, 6:51 AM)9% (Sep 14, 12:51 PM)29.86 "Hg (Sep 27, 3:51 PM)
Average70 °F62%30.10 "Hg
* Reported Sep 13 12:51 AM — Sep 28 12:51 AM, Paramus, Weather by CustomWeather, © 2016

Note: Actual official high and low records may vary slightly from our data, if they occured in-between our weather recording intervals... More about our weather records

Advertising

Paramus Weather History for the Previous 24 Hours

Scroll right to see more
 ConditionsComfort  
Time TempWeatherWind HumidityBarometerVisibility
12:51 AM
Wed, Sep 28
60 °FClear.No wind75%29.98 "Hg10 mi
11:51 PM
Tue, Sep 27
59 °FClear.5 mph78%29.97 "Hg10 mi
10:51 PM63 °FClear.No wind81%29.96 "Hg10 mi
9:51 PM64 °FClear.No wind81%29.94 "Hg10 mi
8:51 PM66 °FClear.No wind75%29.93 "Hg10 mi
7:51 PM69 °FClear.3 mph63%29.92 "Hg10 mi
6:51 PM71 °FClear.6 mph44%29.89 "Hg10 mi
5:51 PM74 °FSunny.7 mph40%29.87 "Hg10 mi
4:51 PM75 °FSunny.6 mph39%29.86 "Hg10 mi
3:51 PM76 °FSunny.6 mph39%29.86 "Hg10 mi
2:51 PM76 °FSunny.No wind40%29.88 "Hg10 mi
1:51 PM73 °FPassing clouds.8 mph51%29.89 "Hg10 mi
12:51 PM72 °FSunny.3 mph55%29.90 "Hg10 mi
11:51 AM70 °FSunny.5 mph66%29.92 "Hg10 mi
10:51 AM69 °FPartly sunny.7 mph70%29.94 "Hg10 mi
9:51 AM67 °FSunny.5 mph79%29.93 "Hg10 mi
8:51 AM65 °FSunny.3 mph85%29.92 "Hg10 mi
7:51 AM65 °FPartly sunny.3 mph87%29.90 "Hg9 mi
6:51 AM65 °FLight rain. Fog.3 mph87%29.89 "Hg5 mi
5:51 AM65 °FLight rain. Fog.3 mph91%29.89 "Hg5 mi
5:01 AM65 °FLight rain. Fog.5 mph94%29.89 "Hg5 mi
3:51 AM65 °FRain. Fog.3 mph91%29.90 "Hg4 mi
3:01 AM65 °FRain. Fog.6 mph91%29.91 "Hg3 mi
Weather by CustomWeather, © 2016

See weather overviewHow to use our weather pages